Location: Brantley
(31.5822°N, 86.2569°W)
Time: 06:20:34
(UTC+00:00)

Vanguard 2 - Pass Details

Date: 16 February 2026
Orbit: 553 x 2896 km, 32.9° (Epoch: 5 March)

Event Time Altitude Azimuth Distance (km) Brightness Sun altitude
Rises 14:18:17 0° 275° (W) 2,873 10.0 21.4°
Reaches altitude 10° 14:20:39 10° 277° (W) 1,869 9.1 21.8°
Maximum altitude 14:24:40 74° 3° (N) 576 7.2 22.5°
Drops below altitude 10° 14:28:51 10° 89° (E) 1,948 10.7 23.3°
Sets 14:31:22 0° 91° (E) 3,009 11.5 23.8°
